ニート彗星

C/1997 A1 ( NEAT )

English version
Home page
Updated on January 30, 2011

---------------------------------------------------------------------

・ プロフィール

発見日 1997年1月10日
発見光度 18.6等
発見者 Near-Earth-Asteroid Tracking Team (Jet Propulsion Laboratory)

・ 軌道要素

Epoch 1997 June 1.0 TT = JDT 2450600.5
T 1997 June 19.59289 TT                                 MPC
q   3.1571977            (2000.0)            P               Q
z  -0.0006495      Peri.   40.01325     -0.18104103     +0.89872342
 +/-0.000001       Node   135.76676     +0.69029043     -0.17314704
e   1.0020505      Incl.  145.07176     +0.70051643     +0.40288500
From 194 observations 1997 Jan. 9-Dec. 28, mean residual 0".6.

・ 星図

・ 1996年11月 3日〜1998年 4月 7日

・ 光度変化

        m1 = 10.0 + 5 logΔ + 10.0 log r

---------------------------------------------------------------------

軌道要素はM.P.E.C. 2011-A08に掲載されたものです。
星図は StellaNavigator Ver.2.0 for Windows (アストロアーツ編著 / アスキー出版局刊) で作成したものです。
光度グラフはComet for Windowsで作成したものです。

---------------------------------------------------------------------

Copyright(C) Seiichi Yoshida (comet@aerith.net). All rights reserved.